EW9174 Weather Reports


Display with metric or nautical units.
time (UTC)temp
F
wind
direction
speed
MPH
gust
MPH
rain 1hr
in
rain 24hr
in
rain mn
in
humidity
%
barometer
mb
20260509230052 76 65 0.0 3.0 0.00 0.00 0.00 22 1002.2
20260509224556 76 80 0.0 3.0 0.00 0.00 0.00 21 1002.2
20260509223051 78 118 0.0 4.0 0.00 0.00 0.00 21 1002.0
20260509221546 79 86 1.0 3.0 0.00 0.00 0.00 19 1001.3
20260509220046 79 75 1.0 3.0 0.00 0.00 0.00 19 1001.4
20260509214545 81 51 0.0 4.0 0.00 0.00 0.00 16 1001.3
20260509213043 83 66 0.0 2.0 0.00 0.00 0.00 17 1001.4
20260509211541 86 65 0.0 2.0 0.00 0.00 0.00 18 1001.7
20260509210046 87 62 2.0 5.0 0.00 0.00 0.00 16 1002.0
20260509204536 87 274 1.0 6.0 0.00 0.00 0.00 15 1002.1
20260509203036 85 324 0.0 7.0 0.00 0.00 0.00 15 1002.4
20260509201529 85 5 1.0 4.0 0.00 0.00 0.00 18 1002.7
20260509200025 84 11 0.0 6.0 0.00 0.00 0.00 16 1003.1
20260509194527 84 24 2.0 6.0 0.00 0.00 0.00 16 1003.3
20260509193023 84 324 0.0 5.0 0.00 0.00 0.00 18 1003.4
20260509191520 83 261 2.0 6.0 0.00 0.00 0.00 16 1003.7
20260509190017 83 301 0.0 3.0 0.00 0.00 0.00 21 1003.8
20260509184523 82 217 1.0 6.0 0.00 0.00 0.00 19 1003.9
20260509183014 81 5 1.0 11.0 0.00 0.00 0.00 19 1004.1
20260509181510 81 83 0.0 2.0 0.00 0.00 0.00 23 1004.4
20260509180007 80 96 0.0 2.0 0.00 0.00 0.00 26 1004.7
20260509174505 78 57 0.0 3.0 0.00 0.00 0.00 26 1004.9
20260509173110 77 57 0.0 4.0 0.00 0.00 0.00 24 1005.2
20260509171557 77 33 0.0 7.0 0.00 0.00 0.00 22 1005.4
20260509170055 76 11 1.0 5.0 0.00 0.00 0.00 24 1005.3
20260509164549 74 50 1.0 5.0 0.00 0.00 0.00 27 1005.6
20260509163045 72 163 1.0 4.0 0.00 0.00 0.00 34 1005.7
20260509161547 70 53 0.0 4.0 0.00 0.00 0.00 39 1005.7
20260509160037 68 53 1.0 3.0 0.00 0.00 0.00 41 1005.8
20260509154532 65 55 1.0 3.0 0.00 0.00 0.00 47 1005.8
20260509153031 63 56 0.0 3.0 0.00 0.00 0.00 53 1006.0
20260509151524 62 57 0.0 3.0 0.00 0.00 0.00 58 1006.2
20260509150020 60 57 0.0 3.0 0.00 0.00 0.00 59 1006.1
20260509144519 59 56 0.0 1.0 0.00 0.00 0.00 63 1006.2
20260509143016 57 56 0.0 3.0 0.00 0.00 0.00 65 1006.2
20260509141516 55 57 0.0 4.0 0.00 0.00 0.00 67 1006.5
20260509140005 53 57 0.0 2.0 0.00 0.00 0.00 73 1006.6
20260509134511 50 70 0.0 2.0 0.00 0.00 0.00 78 1006.6
20260509133002 48 70 0.0 3.0 0.00 0.00 0.00 81 1006.5
20260509131505 47 70 0.0 3.0 0.00 0.00 0.00 82 1006.5
20260509130002 46 71 0.0 2.0 0.00 0.00 0.00 82 1006.4
20260509124501 45 71 0.0 1.0 0.00 0.00 0.00 82 1006.2
20260509123100 45 71 0.0 2.0 0.00 0.00 0.00 81 1006.2
20260509121559 45 71 0.0 1.0 0.00 0.00 0.00 81 1006.1
20260509120101 45 71 0.0 0.0 0.00 0.00 0.00 81 1005.8
20260509114558 45 71 0.0 2.0 0.00 0.00 0.00 81 1005.7
20260509113056 45 71 0.0 1.0 0.00 0.00 0.00 81 1005.5
20260509111558 46 71 0.0 2.0 0.00 0.00 0.00 81 1005.5
20260509110053 46 71 0.0 0.0 0.00 0.00 0.00 80 1005.4
20260509104606 46 71 0.0 0.0 0.00 0.00 0.00 80 1005.5
20260509103103 46 71 0.0 1.0 0.00 0.00 0.00 80 1005.4
20260509101548 47 71 0.0 0.0 0.00 0.00 0.00 79 1005.5
20260509100046 47 71 0.0 1.0 0.00 0.00 0.00 79 1005.6
20260509094547 47 71 0.0 1.0 0.00 0.00 0.00 79 1005.7
20260509093043 48 71 0.0 0.0 0.00 0.00 0.00 78 1005.6
20260509091544 48 71 0.0 1.0 0.00 0.00 0.00 77 1005.5
20260509090050 49 71 0.0 2.0 0.00 0.00 0.00 77 1005.6
20260509084538 49 71 0.0 3.0 0.00 0.00 0.00 75 1005.7
20260509083034 50 71 0.0 2.0 0.00 0.00 0.00 75 1005.8
20260509081546 50 71 0.0 0.0 0.00 0.00 0.00 73 1005.8
20260509080028 51 71 0.0 1.0 0.00 0.00 0.00 71 1006.3
20260509074524 52 71 0.0 0.0 0.00 0.00 0.00 69 1006.4
20260509073036 53 71 0.0 0.0 0.00 0.00 0.00 67 1006.5
20260509071526 53 71 0.0 0.0 0.00 0.00 0.00 65 1006.6
20260509070034 53 71 0.0 0.0 0.00 0.00 0.00 68 1006.9
20260509064518 53 71 0.0 0.0 0.00 0.00 0.00 67 1007.0
20260509063018 53 71 0.0 0.0 0.00 0.00 0.00 69 1007.0
20260509061515 53 71 0.0 0.0 0.00 0.00 0.00 69 1007.2
20260509060016 53 71 0.0 0.0 0.00 0.00 0.00 67 1007.1
20260509054512 54 71 0.0 0.0 0.00 0.00 0.00 66 1007.1
20260509053015 55 71 0.0 0.0 0.00 0.00 0.00 63 1007.3
20260509051511 56 71 0.0 0.0 0.00 0.00 0.00 61 1007.3
20260509050010 57 71 0.0 0.0 0.00 0.00 0.00 59 1007.4
20260509044512 58 71 0.0 0.0 0.00 0.00 0.00 58 1007.2
20260509043009 59 71 0.0 0.0 0.00 0.00 0.00 57 1007.2
20260509041510 60 71 0.0 0.0 0.00 0.00 0.00 54 1007.1
20260509040009 61 71 0.0 1.0 0.00 0.00 0.00 51 1006.8
20260509034510 63 71 0.0 1.0 0.00 0.00 0.00 49 1006.7
20260509033008 64 71 0.0 1.0 0.00 0.00 0.00 47 1006.7
20260509031507 65 71 0.0 1.0 0.00 0.00 0.00 46 1006.4
20260509030007 66 75 0.0 1.0 0.00 0.00 0.00 43 1006.2
20260509024511 67 74 0.0 1.0 0.00 0.00 0.00 41 1006.2
20260509023005 67 74 0.0 2.0 0.00 0.00 0.00 40 1005.8
20260509021505 68 76 0.0 1.0 0.00 0.00 0.00 39 1005.5
20260509020004 69 76 0.0 1.0 0.00 0.00 0.00 37 1005.2
20260509014510 69 76 0.0 2.0 0.00 0.00 0.00 36 1005.1
20260509013002 70 78 0.0 2.0 0.00 0.00 0.00 34 1004.7
20260509011502 71 79 0.0 2.0 0.00 0.00 0.00 34 1004.4
20260509010003 72 80 0.0 3.0 0.00 0.00 0.00 33 1004.5
20260509004501 73 83 0.0 1.0 0.00 0.00 0.00 31 1004.4
20260509003100 75 83 0.0 1.0 0.00 0.00 0.00 30 1004.3
20260509001559 77 83 0.0 1.0 0.00 0.00 0.00 29 1004.4
20260509000058 79 82 0.0 1.0 0.00 0.00 0.00 26 1004.3
20260508234558 80 82 0.0 3.0 0.00 0.00 0.00 25 1004.2
20260508233056 80 77 0.0 2.0 0.00 0.00 0.00 27 1004.1
20260508231555 80 85 0.0 3.0 0.00 0.00 0.00 27 1004.2